Location: Newark
(43.6583°N, 1.6617°E)
Time: 13:05:20
(UTC+00:00)

Courier 1B - Pass Details

Date: 01 September 2019
Orbit: 962 x 1209 km, 28.3° (Epoch: 22 September)

Event Time Altitude Azimuth Distance (km) Brightness Sun altitude
Rises 17:46:48 0° 253° (WSW) 3,916 12.2 6.8°
Reaches altitude 10° 17:51:03 10° 231° (SW) 2,900 10.8 6.1°
Maximum altitude 17:54:36 15° 200° (SSW) 2,528 9.9 5.4°
Drops below altitude 10° 17:58:05 10° 169° (S) 2,805 9.8 4.8°
Sets 18:02:05 0° 146° (SE) 3,708 10.1 4.1°
